Portage Southport, Manitoba

11:54 AM CST on February 21, 2017 (GMT -0600)
Southport

Weather History for CYPG - October, 2013

Change the Weather History Date:

Wednesday, October 9, 2013

  Actual Average Record
Temperature  
Mean Temperature 56 °F -  
Max Temperature 69 °F 42 °F 80 °F (2003)
Min Temperature 42 °F 28 °F 26 °F (2002)
Degree Days  
Heating Degree Days 10    
Growing Degree Days 6 (Base 50)    
Moisture  
Dew Point 40 °F    
Average Humidity 56    
Maximum Humidity 81    
Minimum Humidity 34    
Precipitation  
Precipitation 0.00 in - - ()
Sea Level Pressure  
Sea Level Pressure 29.98 in    
Wind  
Wind Speed 6 mph ()    
Max Wind Speed 13 mph    
Max Gust Speed 17 mph    
Visibility 15.0 miles    
Events      
Averages and records for this station are not official NWS values.
T = Trace of Precipitation, MM = Missing Value Source: Averaged Metar Reports

Daily Weather History Graph

Daily Weather History Graph

Search for Another Location

Airport or City:

Trip Planner

Search our weather history database for the weather conditions in past years. The results will help you decide how hot, cold, wet, or windy it might be!

Date:

Astronomy

Oct. 09, 2013 Rise Set
Actual Time 7:45 AM CDT 6:53 PM CDT
Civil Twilight 7:13 AM CDT 7:25 PM CDT
Nautical Twilight 6:36 AM CDT 8:03 PM CDT
Astronomical Twilight 5:58 AM CDT 8:40 PM CDT
Moon 1:06 PM CDT (10/9) 10:06 PM CDT (10/9)
Length of Visible Light 12h 12m
Length of Day
11h 07m
Waxing Crescent, 25% of the Moon is Illuminated
Oct 9
Waxing Crescent
Oct 11
First Quarter
Oct 18
Full
Oct 26
Last Quarter
Nov 3
New

Hourly Weather History & Observations

Time (CDT) Temp. Windchill Dew Point Humidity Pressure Visibility Wind Dir Wind Speed Gust Speed Precip Events Conditions
1:00 AM 52 °F - 38 °F 47% 29.78 in - WSW 5.8 mph - -  
6:00 AM 44.6 °F 40.7 °F 37.4 °F 76% 29.91 in 15.0 mi WSW 6.9 mph - N/A   Partly Cloudy
7:00 AM 44 °F - 38 °F 71% 29.92 in - WSW 6.9 mph - -  
7:00 AM 44.6 °F 40.7 °F 37.4 °F 76% 29.94 in 15.0 mi SW 6.9 mph - N/A   Mostly Cloudy
8:00 AM 42.8 °F 37.5 °F 37.4 °F 81% 29.96 in 15.0 mi WSW 9.2 mph - N/A   Mostly Cloudy
9:00 AM 44.6 °F 40.2 °F 37.4 °F 76% 29.97 in 15.0 mi SW 8.1 mph - N/A   Mostly Cloudy
10:00 AM 50.0 °F - 41.0 °F 71% 29.99 in 15.0 mi West 5.8 mph - N/A   Scattered Clouds
11:00 AM 55.4 °F - 44.6 °F 67% 30.01 in 15.0 mi WSW 4.6 mph - N/A   Partly Cloudy
12:00 PM 62.6 °F - 44.6 °F 52% 30.01 in 15.0 mi West 6.9 mph - N/A   Partly Cloudy
1:00 PM 65 °F - 43 °F 34% 29.99 in - NNW 4.6 mph - -  
1:00 PM 64.4 °F - 44.6 °F 49% 30.01 in 15.0 mi West 11.5 mph - N/A   Partly Cloudy
2:00 PM 68.0 °F - 39.2 °F 35% 30.01 in 15.0 mi WNW 9.2 mph 17.3 mph N/A   Partly Cloudy
3:00 PM 68.0 °F - 39.2 °F 35% 30.00 in 15.0 mi WNW 12.7 mph - N/A   Partly Cloudy
4:00 PM 68.0 °F - 39.2 °F 35% 30.00 in 15.0 mi SSW 4.6 mph - N/A   Partly Cloudy
5:00 PM 68.0 °F - 39.2 °F 35% 30.00 in 15.0 mi SW 6.9 mph - N/A   Partly Cloudy
6:00 PM 66.2 °F - 41.0 °F 40% 30.00 in 15.0 mi SW 4.6 mph - N/A   Partly Cloudy
7:00 PM 57 °F - 43 °F 50% 30.00 in - WSW 2.3 mph - -  
7:00 PM 62.6 °F - 41.0 °F 45% 30.01 in 15.0 mi SSW 4.6 mph - N/A   Partly Cloudy
8:00 PM 55.4 °F - 41.0 °F 58% 30.02 in 15.0 mi WSW 5.8 mph - N/A   Partly Cloudy
9:00 PM 51.8 °F - 41.0 °F 67% 30.03 in 15.0 mi West 4.6 mph - N/A   Partly Cloudy
10:00 PM 51.8 °F - 39.2 °F 62% 30.04 in 15.0 mi WSW 2.3 mph - N/A   Scattered Clouds
11:00 PM 50.0 °F - 39.2 °F 66% 30.04 in 15.0 mi NW 9.2 mph - N/A   Partly Cloudy